Flag for Germany Weather past 2 weeks in Chemnitz, Saxony, Germany

Now
70 °F

Passing clouds.


Feels Like: 70 °F
Forecast: 55 / 76 °F
Wind: 8 mph from Northeast

Location: Altenburg Nobitz

Current Time: Jul 24, 2014 at 10:30:52 AM

Latest Report: Jul 24, 2014 at 9:50 AM


Visibility: N/A

Pressure: 29.98 "Hg

Humidity: 64%

Dew point: 57 °F

Location of ChemnitzLocation

Historic Weather in Chemnitz — Graph

°F

Chemnitz temperature yesterday

Maximum temperature yesterday: 81 °F (at 2:50 PM)
Minimum temperature yesterday: 66 °F (at 10:50 PM)
Average temperature yesterday: 75 °F

Past Weeks' High & Low Weather Summary

 TemperatureHumidityPressure
High91 °F (Jul 20, 1:50 PM)100% (Jul 10, 8:20 AM)30.21 "Hg (Jul 10, 8:20 AM)
Low55 °F (Jul 10, 8:20 AM)26% (Jul 20, 1:50 PM)29.59 "Hg (Jul 9, 9:50 AM)
Average74 °F59%29.95 "Hg
* Reported Jul 9 9:50 AM — Jul 24 9:20 AM, Chemnitz, Weather by CustomWeather, © 2014

Note: Actual official high and low records may vary slightly from our data, if they occured in-between our weather recording intervals... More about our weather records

Advertising

Chemnitz weather history for previous 24 hours

 ConditionsComfort  
Time TempWeatherWind HumidityBarometerVisibility
9:20 AM
Jul 24
68 °FSunny.8 mph69%29.98 "Hg10 mi
8:50 AM66 °FPassing clouds.7 mph73%29.98 "HgN/A
8:20 AM66 °FPassing clouds.2 mph78%29.98 "HgN/A
1:50 AM63 °FClear.2 mph77%30.01 "Hg10 mi
1:20 AM64 °FClear.3 mph73%30.01 "Hg10 mi
12:50 AM64 °FPassing clouds.5 mph73%30.01 "HgN/A
12:20 AM66 °FPassing clouds.5 mph64%30.01 "HgN/A
11:50 PM
Jul 23
66 °FClear.8 mph64%30.01 "Hg10 mi
11:20 PM66 °FClear.8 mph64%30.01 "Hg10 mi
10:50 PM66 °FClear.6 mph68%30.01 "Hg10 mi
10:20 PM68 °FPassing clouds.8 mph60%30.01 "HgN/A
9:50 PM70 °FPassing clouds.8 mph57%30.01 "HgN/A
7:50 PM77 °FSunny.7 mph39%29.98 "Hg10 mi
7:20 PM79 °FSunny.10 mph32%29.98 "Hg10 mi
6:50 PM79 °FPassing clouds.12 mph34%29.98 "HgN/A
6:20 PM79 °FPassing clouds.13 mph34%29.98 "HgN/A
5:50 PM79 °FSunny.9 mph37%29.98 "Hg10 mi
4:50 PM79 °FSunny.10 mph37%30.01 "Hg10 mi
4:20 PM81 °FPassing clouds.13 mph34%30.01 "HgN/A
3:20 PM81 °FSunny.13 mph37%30.01 "Hg10 mi
2:50 PM81 °FSunny.10 mph39%30.01 "Hg10 mi
Weather by CustomWeather, © 2014

See weather overviewHow to use our weather pages